Home   Weather   Aqtobe   Past weeks

Flag for Kazakhstan Past Weather in Aqtobe, Kazakhstan — Yesterday and Last 2 Weeks

Now
59 °F

Clear.


Feels Like: 58 °F
Forecast: 50 / 72 °F
Wind: 8 mph from Southeast

Location: Aktjubinsk

Current Time: May 1, 2017 at 12:02:18 am

Latest Report: Apr 30, 2017 at 11:00 pm


Visibility: 10 mi

Pressure: 30.45 "Hg

Humidity: 51%

Dew Point: 41 °F

Location of AqtobeLocation

Past Weather in Aqtobe — Graph

°F

Aqtobe Temperature Yesterday

Maximum temperature yesterday: 77 °F (at 3:00 pm)
Minimum temperature yesterday: 37 °F (at 6:00 am)
Average temperature yesterday: 61 °F

High & Low Weather Summary for the Past Weeks

 TemperatureHumidityPressure
High77 °F (Apr 30, 3:00 pm)93% (Apr 16, 7:00 am)30.54 "Hg (Apr 16, 7:00 am)
Low27 °F (Apr 22, 5:30 am)13% (Apr 30, 4:00 pm)29.56 "Hg (Apr 15, 10:00 pm)
Average51 °F57%30.10 "Hg
* Reported Apr 15 10:00 pm — Apr 30 10:30 pm, Aqtobe, Weather by CustomWeather, © 2017

Note: Actual official high and low records may vary slightly from our data, if they occured in-between our weather recording intervals... More about our weather records

Advertising

Aqtobe Weather History for the Previous 24 Hours

Scroll right to see more
 ConditionsComfort  
Time TempWeatherWind HumidityBarometerVisibility
10:30 pm
Sun, Apr 30
59 °FClear.10 mph48%30.42 "Hg10 mi
10:00 pm63 °FClear.13 mph39%30.45 "Hg10 mi
9:30 pm64 °FClear.10 mph34%30.42 "HgN/A
9:00 pm66 °FClear.8 mph28%30.42 "Hg6 mi
8:30 pm70 °FClear.6 mph21%30.42 "Hg10 mi
8:00 pm72 °FSunny.6 mph20%30.42 "Hg10 mi
7:30 pm73 °FPassing clouds.3 mph17%30.39 "HgN/A
7:00 pm75 °FSunny.6 mph14%30.39 "Hg10 mi
6:30 pm75 °FPassing clouds.6 mph14%30.42 "HgN/A
6:00 pm75 °FPassing clouds.8 mph15%30.42 "HgN/A
5:30 pm77 °FPassing clouds.6 mph14%30.42 "HgN/A
5:00 pm77 °FPassing clouds.6 mph14%30.42 "HgN/A
4:30 pm77 °FPassing clouds.6 mph13%30.42 "HgN/A
4:00 pm77 °FPassing clouds.3 mph13%30.42 "HgN/A
3:30 pm77 °FSunny.3 mph14%30.42 "Hg10 mi
3:00 pm77 °FPassing clouds.10 mph14%30.42 "HgN/A
2:30 pm75 °FPassing clouds.6 mph14%30.45 "HgN/A
2:00 pm75 °FClear.6 mph14%30.45 "HgN/A
1:30 pm73 °FClear.6 mph15%30.45 "Hg6 mi
1:00 pm75 °FClear.6 mph14%30.45 "Hg6 mi
12:30 pm73 °FClear.6 mph16%30.45 "HgN/A
12:00 pm73 °FClear.6 mph15%30.45 "HgN/A
11:30 am72 °FClear.6 mph19%30.48 "Hg6 mi
11:00 am70 °FClear.3 mph27%30.48 "HgN/A
10:30 am66 °FClear.1 mph28%30.48 "Hg4 mi
10:00 am64 °FClear.3 mph32%30.48 "Hg3 mi
9:30 am61 °FClear.3 mph36%30.48 "Hg2 mi
8:30 am55 °FClear.1 mph47%30.48 "Hg4 mi
8:00 am52 °FClear.No wind58%30.48 "Hg5 mi
7:30 am46 °FSunny.No wind71%30.48 "Hg10 mi
7:00 am41 °FSunny.No wind87%30.45 "Hg10 mi
6:30 am39 °FSunny.No wind81%30.45 "Hg10 mi
6:00 am37 °FSunny.No wind81%30.45 "Hg10 mi
5:30 am39 °FClear.No wind81%30.45 "Hg10 mi
5:00 am39 °FClear.No wind81%30.45 "Hg10 mi
4:30 am41 °FClear.No wind76%30.42 "Hg10 mi
4:00 am41 °FClear.3 mph76%30.42 "Hg10 mi
3:30 am41 °FClear.3 mph70%30.42 "Hg10 mi
3:00 am41 °FClear.No wind70%30.42 "Hg10 mi
2:30 am41 °FClear.No wind76%30.42 "Hg10 mi
2:00 am41 °FClear.No wind76%30.42 "Hg10 mi
1:30 am45 °FClear.No wind66%30.42 "Hg10 mi
12:30 am48 °FClear.1 mph58%30.42 "Hg10 mi
12:00 am50 °FClear.No wind54%30.42 "Hg10 mi
Weather by CustomWeather, © 2017

See weather overviewHow to use our weather pages